星链-1093 (STARLINK-1093 )

导读

STARLINK-1093是美国太空探索技术公司星链计划的卫星之一,于2020年1月7日发射。作为星链低轨互联网星座组成部分,它在近地轨道运行,为全球提供宽带互联网接入服务,推动了全球网络覆盖,尤其改善偏远地区联网条件,也是商用低轨卫星星座建设进程中的典型节点。

基本信息
目录编号:
44970
目录名称:
STARLINK-1093
国际标识:
2020-001BJ
轨道中心:
EARTH
卫星名称:
星链-1093
卫星全名:
星链-1093 (STARLINK-1093 )
卫星状态:
已陨落 最后检测时间 2025-08-11
发射日期:
2020-01-07 UTC
国别 :
美国 (US)
星等 :
--
该卫星已列入 空间交会检测服务 Space Conjunction Data Service (SCDS) ,当前飞行风险评估等级: 无高风险
轨道信息
数据来源 国际轨道数据
星历时间: 2025-08-11T14:45:59+0800
轨道信息已过期396天
半长轴: 6526.705km
偏心率: 0.0008544
轨道倾角: 53.022°
近地点辐角 275.564°
升交点赤经 53.935°
平近点角 255.611°
近地点: 142.993km
远地点: 154.147km
周期: 87.458分钟
每日圈数: 16.465002
详细信息
固有亮度:
5
最大亮度:
2.5
卫星平台:
Starlink V1.0
覆盖范围:
全球
运营商:
太空探索技术公司
运营商所在国:
美国
制造商(研发单位):
太空探索技术公司
制造商所在国:
美国
使用方式:
暂无
卫星简介
星链(Starlink)计划是由太空探索技术公司(SpaceX)提出的一个巨型低轨卫星互联网星座项目,计划在2019年至2024年间在太空搭建由约1.2万颗卫星组成的“星链”网络,其中1584颗将部署在地球上空550千米处的近地轨道,并从2020年开始工作。该卫星仍在工作。
与全量物体交会距离演化趋势
与全量物体交会风险概率演化趋势